Location: Bishop�s Knoyle
(51.0728°N, 2.1714°W)
Time: 17:09:46
(UTC+00:00)

Envisat - Pass Details

Date: 22 September 2021
Orbit: 764 x 766 km, 98.2° (Epoch: 18 October)

Event Time Altitude Azimuth Distance (km) Brightness Sun altitude
Rises 04:07:35 0° 26° (NNE) 3,244 7.0 -17.2°
Reaches altitude 10° 04:10:37 10° 44° (NE) 2,312 6.5 -16.8°
Maximum altitude 04:14:08 19° 88° (E) 1,786 5.8 -16.3°
Drops below altitude 10° 04:17:38 10° 132° (SE) 2,299 5.8 -15.8°
Sets 04:20:37 0° 151° (SSE) 3,219 6.3 -15.3°
